Location: Chacón
(10.5789°N, 66.9317°W)
Time: 01:12:28
(UTC+00:00)

Okean O Rocket - Pass Details

Date: 23 May 2024
Orbit: 618 x 640 km, 98.1° (Epoch: 12 June)

Event Time Altitude Azimuth Distance (km) Brightness Sun altitude
Exits shadow 00:24:27 22° 38° (NE) 1,378 3.2 -23.3°
Drops below altitude 10° 00:26:33 10° 16° (NNE) 2,024 4.3 -23.7°
Sets 00:28:57 0° 5° (N) 2,933 5.3 -24.2°
